Location: San Vito
(41.8833°N, 12.9833°E)
Time: 15:25:17
(UTC+00:00)

Cosmos 2100 Rocket - Pass Details

Date: 17 November 2019
Orbit: 955 x 1001 km, 82.9° (Epoch: 07 December)

Event Time Altitude Azimuth Distance (km) Brightness Sun altitude
Rises 04:38:28 0° 203° (SSW) 3,653 6.9 -15.1°
Reaches altitude 10° 04:41:04 10° 209° (SSW) 2,704 6.2 -14.6°
Maximum altitude 04:47:01 48° 283° (WNW) 1,245 4.2 -13.6°
Drops below altitude 10° 04:52:57 10° 356° (N) 2,698 6.1 -12.5°
Sets 04:55:33 0° 3° (N) 3,646 6.9 -12.0°
